Location: Newark
(13.6797°N, 8.5297°E)
Time: 04:46:36
(UTC+00:00)

Courier 1B Rocket - Pass Details

Date: 19 January 2020
Orbit: 920 x 1202 km, 28.2° (Epoch: 17 February)

Event Time Altitude Azimuth Distance (km) Brightness Sun altitude
Rises 20:43:57 0° 284° (WNW) 3,575 8.5 -48.3°
Reaches altitude 10° 20:46:42 10° 276° (W) 2,654 7.7 -49.0°
Enters shadow 20:46:51 11° 275° (W) 2,607 7.7 -49.0°
Maximum altitude 20:52:32 37° 210° (SSW) 1,463 - -50.3°
Drops below altitude 10° 20:58:43 10° 144° (SE) 2,812 - -51.8°
Sets 21:01:44 0° 136° (SE) 3,812 - -52.5°
